Showing default

CHINASAT 3B, 64062

Orbit data source: Space-Track

CHINASAT 3B, 64062 is a payload satellite owned by PLA SSF (CN) in GEO that was launched on Tue, 20 May 2025 UTC via a CHANG ZHENG 7A launch vehicle from the Wenchang Satellite Launch Center (WSC). Payload-class satellites include a variety of spacecraft equipped with specific instruments for various scientific and technological missions. These include communications satellites like Starlink; space stations such as the ISS; scientific satellites like the Hubble; Earth observation satellites from companies like Planet Labs, Umbra, and HawkEye 360; GPS; miniature CubeSats for education and research; and military/defense satellites.

Not visible in the next 10 days
Identifier
64062, 2025-106A
Orbit
GEO
Country
Flag of CNCN / PRC
Related business
Manufacturer
SISE
Mission
Operational Defense Communications
Bus & Motor
FY-4?, LAE
Mass
~5,000 kg wet, ~2,500 kg dry
Launch date (UTC)
2025-05-20 (1 year ago)
Launch vehicle
CHANG ZHENG 7A
Launch site
Wenchang Satellite Launch Center (WSC)
Object type
Payload
Rocket body
Debris
Shape & HBR
Box + 2 Pan, 22.5 m
Radar Cross Section
34.063 m², Large (>1 m²)

Expand to show TLE details & history
Last TLE update: 9 hours ago

TLE from 9 hours ago
0 CHINASAT 3B
1 64062U 25106A   26129.59965551 -.00000036  00000-0  00000+0 0  9996
2 64062   0.0356  80.8690 0001966 357.5060 172.2340  1.00273684  3679
Epoch: 2026-05-09T14:23Z
TLE epoch observation values (Epoch: 2026-05-09T14:23:30.236Z)
Latitude
-0.01584°
Longitude
167.31236°
Altitude
35,793.787 km
Speed
3.074 km/s
True Right ascension
16h 42m 24s
True Declination
0° 00' 57"
Sunlit
Object was in daylight at epoch
Visualization orbit readout
Latitude
Unknown
Longitude
Unknown
Altitude
Unknown
Speed
Unknown
Apparent Right ascension
Unknown
Apparent Declination
Unknown
Sunlit
N/A
Visualization observer readout
Local Sidereal Time
07:08:55
Azimuth
Unknown
Elevation
Unknown
Doppler factor
Unknown
Orbital elements
Apogee altitude
35,795.423 km
Perigee altitude
35,778.843 km
Semi-major axis
42,165.27 km
Eccentricity
0.0002
Inclination
0.0356°
RAAN
80.869°
Arg. of periapsis
357.506°
True anomaly
172.23704°
Mean anomaly
172.234°
Eccentric anomaly
172.23552°
Mean motion
0.25067 °/min
Orbital period
1,436.12 mins
BSTAR
0
Loading maneuver chart data...
Computing Atmospheric mass density...
Loading historical data...
Loading historical data...
Loading historical data...
Loading historical data...
Loading historical data...
Loading historical data...
Loading historical data...
Other satellites on launch #106 in the year 2025 (2025-05-20 UTC)

Documentation

Showing up to 5 results
|